Regional Weather Roundup
Issued by NWS Wilmington, NC

Home | Current Version | Previous Version | Text Only | Print | Product List | Glossary On
Versions: 1 2 3 4 5 6 7 8 9 10 11 12 13 14 15 16 17 18 19 20 21 22 23 24 25 26 27 28 29 30 31 32 33 34 35 36 37 38 39 40 41 42 43 44 45 46 47 48
000
ASUS42 KILM 210810
RWRILM
RWRILM
REGIONAL HOURLY WEATHER ROUNDUP
NATIONAL WEATHER SERVICE WILMINGTON NC
400 AM EDT SUN SEP 21 2014

NOTE: "FAIR" INDICATES FEW OR NO CLOUDS BELOW 12,000 FEET WITH NO
SIGNIFICANT WEATHER AND/OR OBSTRUCTIONS TO VISIBILITY.

...............WFO WILMINGTON COUNTY WARNING AREA...............

......COASTAL NC AND SC COUNTIES......

CITY           SKY/WX    TMP DP  RH WIND       PRES   REMARKS
WILMINGTON     LGT RAIN  70  68  93 N14       29.77F
SOUTHPORT      CLOUDY    68  66  93 NW10      29.79F
N MYRTLE BEACH LGT RAIN  69  66  90 N9        29.82F
MYRTLE BEACH   CLOUDY    70  64  83 NW13      29.83F

......INLAND NC AND SC COUNTIES.......

CITY           SKY/WX    TMP DP  RH WIND       PRES   REMARKS
LUMBERTON      CLOUDY    68  64  87 NW8       29.87F
ELIZABETHTOWN  CLOUDY    68  67  97 NW7       29.85F
WHITEVILLE     LGT RAIN  68  66  92 N3        29.84F
FLORENCE       PTCLDY    69  61  75 N9        29.89S
DARLINGTON     CLEAR     64  57  77 NW8       29.92S

....................REST OF NORTH CAROLINA......................

.........EASTERN NC.........

CITY           SKY/WX    TMP DP  RH WIND       PRES   REMARKS
CAPE HATTERAS  RAIN      71  71 100 E7        29.76F FOG
JACKSONVILLE   CLOUDY    70  66  88 N10G17    29.79F
MOREHEAD CITY  RAIN      73  71  93 N17G29    29.72F FOG
KENANSVILLE    LGT RAIN  68  67  95 N8        29.84F
NEW BERN       HVY RAIN  73  69  87 N12       29.79F FOG
ELIZABETH CITY RAIN      72  70  93 N9        29.84F

.........CENTRAL NC.........

CITY           SKY/WX    TMP DP  RH WIND       PRES   REMARKS
RALEIGH DURHAM MOCLDY    65  61  87 VRB5      29.92F
ROCKY MOUNT    CLOUDY    68  66  93 N10       29.88F
ROANOKE RAPIDS NOT AVBL
FAYETTEVILLE   MOCLDY    68  64  87 N12       29.88F
HOFFMAN        NOT AVBL

.........WESTERN NC.........

CITY           SKY/WX    TMP DP  RH WIND       PRES   REMARKS
CHARLOTTE      PTCLDY    60  57  89 NW5       29.98S
GREENSBORO     PTCLDY    62  58  86 N3        29.96F
HICKORY        NOT AVBL
BOONE          NOT AVBL
ASHEVILLE      NOT AVBL

.....................REST OF SOUTH CAROLINA.....................

.........EASTERN SC.........

CITY           SKY/WX    TMP DP  RH WIND       PRES   REMARKS
CHARLESTON     PTCLDY    70  64  81 NW7       29.89R
BEAUFORT MCAS  CLEAR     68  63  84 S8        29.92R
HILTON HEAD    NOT AVBL

.........CENTRAL SC.........

CITY           SKY/WX    TMP DP  RH WIND       PRES   REMARKS
COLUMBIA       CLEAR     68  59  73 NW6       29.94F
ORANGEBURG     PTCLDY    64  59  83 NW5       29.93F
SUMTER SHAW    PTCLDY    65  60  82 NW9       29.91S

.........WESTERN SC.........

CITY           SKY/WX    TMP DP  RH WIND       PRES   REMARKS
GREENVILLE     NOT AVBL
ROCK HILL      CLEAR     59  58  96 CALM      29.98S
ANDERSON       CLEAR     61  58  90 CALM      29.99F
CLEMSON        NOT AVBL
GREENWOOD      CLEAR     61  58  90 CALM      30.00S


...................COASTAL AND OFFSHORE REPORTS..................

................LOCAL PIERS AND NC RESERVE................


STATION/POSITION TIME  SKY/WX   TEMP    WIND        PRES    VSBY
                                AIR SEA DIR/SP/G
                 (UTC)          (F)     (DEG/KT/KT) (MB)    (MI)
JOHNY MRCER PIER 0800            71 79  340/ 13/ 19 1007.4F
NC RESRV MASNBRO 0700            69     340/  2     1008.0S
OCEAN CREST PIER 0800            69 80  300/ 11/ 15 1007.7F
SPRINGMAID  PIER 0800            68 79  330/ 11/ 16 1010.4R


................COASTAL AND OFFSHORE BUOYS................


STATION/POSITION TIME  SKY/WX   TEMP    WIND        PRES    VSBY
                                AIR SEA DIR/SP/G
                 (UTC)          (F)     (DEG/KT/KT) (MB)    (MI)
DIMNDSHOAL 41025 0800            76     100/ 12/ 16 1006.4F
WVE H/P(F/S)= 10/ 9 WND WVE H/P(F/S)=  3/ 4 SWL H/P/D(F/S/D)=  8/ 90/ 9

CAPE LOOKOUT     0700            72      20/ 21/ 26 1006.3F
ONSLOW BAY 41036 0700            76 83   20/ 23/ 27 1005.5F
5 WRITEBCH 41038 0700            70 79  360/ 21/ 23   N/A
MASONBORO  41110 0800               79                N/A
WVE H/P(F/S)=  6/ 7 WND WVE H/P(F/S)=  5/ 7

WILM HARBR 41108 0800               79                N/A
WVE H/P(F/S)=  5/ 4 WND WVE H/P(F/S)=  5/ 4

27WRITEBCH 41037 0700            72 80   20/ 25/ 29 1006.8F
FRYING PAN 41013 NOT AVBL
SUNST NRSH 41024 0700            71     350/ 16/ 17 1009.5F
CAPRS NRSH 41029 0700            72     350/ 16/ 17   N/A
EDISTO     41004 0800            74 81  340/ 19/ 23 1009.5R
WVE H/P(F/S)=  7/ 8 WND WVE H/P(F/S)=  7/ 8 SWL H/P/D(F/S/D)=  3/11



..........OFFSHORE BUOYS BEYOND 100 NM OFFSHORE...........
.....IN A TRIANGLE---HAT TO BERMUDA TO BAHAMAS TO HAT.....


STATION/POSITION TIME  SKY/WX   TEMP    WIND        PRES    VSBY
                                AIR SEA DIR/SP/G
                 (UTC)          (F)     (DEG/KT/KT) (MB)    (MI)
150E HAT   41001 NOT AVBL
W BERMUDA  41048 0726            78 80  190/ 16/ 19 1015.3F
WVE H/P(F/S)=  8/ 7 WND WVE H/P(F/S)=  7/ 7 SWL H/P/D(F/S/D)=  5/ 40/ 9

ATLANTIC S 41049 0732            83 85  120/ 17/ 19 1018.7F
WVE H/P(F/S)=  5/ 6 WND WVE H/P(F/S)=  5/ 6 SWL H/P/D(F/S/D)=  2/100/ 8

E BAHAMAS  41046 0730            83 84  130/ 14/ 16 1015.5S
WVE H/P(F/S)=  4/ 6 WND WVE H/P(F/S)=  3/ 6 SWL H/P/D(F/S/D)=  2/110/ 8

NE BAHAMAS 41047 0744            83 83  170/ 17/ 21 1015.4F
WVE H/P(F/S)=  5/ 5 WND WVE H/P(F/S)=  5/ 5 SWL H/P/D(F/S/D)=  2/ 40/11

120E CANVRL41010 0800            80 84  280/ 16/ 17 1011.6R
WVE H/P(F/S)=  4/ 9 WND WVE H/P(F/S)=  3/ 5 SWL H/P/D(F/S/D)=  2/ 20/ 9


END



USA.gov is the U.S. government's official web portal to all federal, state and local government web resources and services.